TimeEST,TemperatureF,Dew PointF,Humidity,Sea Level PressureIn,VisibilityMPH,Wind Direction,Wind SpeedMPH,Gust SpeedMPH,PrecipitationIn,Events,Conditions,WindDirDegrees,DateUTC
12:01 AM,51.8,51.8,100,30.00,2.0,Calm,Calm,-,N/A,,Clear,0,2013-01-17 05:01:00
12:05 AM,51.8,51.8,100,30.00,1.8,Calm,Calm,-,N/A,,Partly Cloudy,0,2013-01-17 05:05:00
12:17 AM,51.8,51.8,100,29.99,2.0,Calm,Calm,-,N/A,,Clear,0,2013-01-17 05:17:00
12:24 AM,51.8,50.0,94,29.99,1.2,Calm,Calm,-,N/A,,Clear,0,2013-01-17 05:24:00
12:39 AM,51.8,50.0,94,29.99,3.0,Calm,Calm,-,N/A,,Clear,0,2013-01-17 05:39:00
12:43 AM,51.8,50.0,94,29.99,2.5,Calm,Calm,-,N/A,,Partly Cloudy,0,2013-01-17 05:43:00
12:49 AM,51.8,50.0,94,29.99,1.0,Calm,Calm,-,N/A,,Mist,0,2013-01-17 05:49:00
12:51 AM,50.0,48.2,94,29.99,0.5,Calm,Calm,-,N/A,Fog,Fog,0,2013-01-17 05:51:00
12:54 AM,48.9,48.0,97,29.99,0.5,Calm,Calm,-,N/A,Fog,Fog,0,2013-01-17 05:54:00
1:23 AM,51.8,50.0,94,29.99,0.2,Calm,Calm,-,N/A,Fog,Fog,0,2013-01-17 06:23:00
1:52 AM,51.8,50.0,94,29.99,1.0,Calm,Calm,-,N/A,,Mist,0,2013-01-17 06:52:00
1:54 AM,52.0,51.1,97,29.99,1.2,SSW,3.5,-,N/A,,Scattered Clouds,200,2013-01-17 06:54:00
1:57 AM,51.8,51.8,100,29.99,3.0,SSW,3.5,-,N/A,,Partly Cloudy,200,2013-01-17 06:57:00
2:54 AM,60.1,57.9,93,29.99,9.0,SSW,8.1,-,N/A,,Clear,210,2013-01-17 07:54:00
3:54 AM,59.0,57.0,93,29.98,8.0,WSW,3.5,-,N/A,,Clear,240,2013-01-17 08:54:00
4:13 AM,55.4,55.4,100,29.97,1.8,Calm,Calm,-,N/A,,Clear,0,2013-01-17 09:13:00
4:18 AM,53.6,53.6,100,29.97,0.5,North,3.5,-,N/A,Fog,Fog,360,2013-01-17 09:18:00
4:31 AM,53.6,53.6,100,29.97,0.5,NNE,3.5,-,N/A,Fog,Fog,30,2013-01-17 09:31:00
4:34 AM,53.6,53.6,100,29.97,1.0,NNE,3.5,-,N/A,,Mist,30,2013-01-17 09:34:00
4:37 AM,53.6,53.6,100,29.97,2.0,NNE,4.6,-,N/A,,Scattered Clouds,30,2013-01-17 09:37:00
4:54 AM,53.1,53.1,100,29.97,0.5,Calm,Calm,-,N/A,Fog,Fog,0,2013-01-17 09:54:00
5:27 AM,53.6,51.8,94,29.97,0.2,Calm,Calm,-,N/A,Fog,Fog,0,2013-01-17 10:27:00
5:54 AM,52.0,51.1,97,29.97,0.8,Calm,Calm,-,N/A,,Overcast,0,2013-01-17 10:54:00
6:01 AM,53.6,51.8,94,29.97,1.0,Calm,Calm,-,N/A,,Overcast,0,2013-01-17 11:01:00
6:14 AM,53.6,51.8,94,29.97,3.0,Calm,Calm,-,N/A,,Overcast,0,2013-01-17 11:14:00
6:54 AM,54.0,53.1,97,29.98,2.0,NNE,3.5,-,N/A,,Overcast,30,2013-01-17 11:54:00
6:57 AM,53.6,53.6,100,29.98,1.0,North,3.5,-,N/A,,Mist,10,2013-01-17 11:57:00
7:00 AM,53.6,53.6,100,29.98,0.5,NNE,4.6,-,N/A,Fog,Fog,20,2013-01-17 12:00:00
7:54 AM,54.0,53.1,97,30.00,0.2,NE,3.5,-,N/A,Fog,Fog,50,2013-01-17 12:54:00
8:54 AM,55.9,54.0,93,30.01,0.5,Calm,Calm,-,N/A,Fog,Fog,0,2013-01-17 13:54:00
9:54 AM,57.0,55.9,96,30.01,0.2,Calm,Calm,-,N/A,Fog,Fog,0,2013-01-17 14:54:00
10:54 AM,57.9,57.0,97,30.00,0.2,NNE,4.6,-,N/A,Fog,Fog,20,2013-01-17 15:54:00
11:54 AM,57.9,57.0,97,29.98,0.5,NNE,6.9,-,N/A,Fog,Fog,30,2013-01-17 16:54:00
12:03 PM,57.2,55.4,94,29.97,1.0,NE,8.1,-,N/A,,Overcast,40,2013-01-17 17:03:00
12:54 PM,55.9,55.0,97,29.96,1.0,NE,10.4,-,N/A,,Overcast,40,2013-01-17 17:54:00
1:12 PM,55.4,53.6,94,29.95,1.2,NNE,10.4,-,0.00,Rain,Light Rain,30,2013-01-17 18:12:00
1:37 PM,55.4,53.6,94,29.94,2.0,NE,11.5,-,0.00,,Overcast,50,2013-01-17 18:37:00
1:54 PM,54.0,53.1,97,29.94,3.0,NE,10.4,-,0.00,,Overcast,40,2013-01-17 18:54:00
2:54 PM,53.1,51.1,93,29.93,3.0,ENE,15.0,-,N/A,,Overcast,70,2013-01-17 19:54:00
3:28 PM,53.6,51.8,94,29.93,3.0,ENE,13.8,-,N/A,,Overcast,70,2013-01-17 20:28:00
3:37 PM,53.6,51.8,94,29.93,2.5,East,10.4,-,N/A,,Overcast,80,2013-01-17 20:37:00
3:47 PM,53.6,50.0,88,29.93,4.0,ENE,13.8,19.6,N/A,,Overcast,70,2013-01-17 20:47:00
3:54 PM,53.1,50.0,89,29.94,6.0,ENE,13.8,-,N/A,,Overcast,60,2013-01-17 20:54:00
4:54 PM,50.0,46.9,89,29.92,5.0,ENE,19.6,25.3,0.01,,Overcast,70,2013-01-17 21:54:00
5:40 PM,48.2,44.6,87,29.93,5.0,NE,19.6,23.0,N/A,,Overcast,50,2013-01-17 22:40:00
5:54 PM,46.9,45.0,93,29.94,5.0,NE,18.4,25.3,N/A,,Overcast,40,2013-01-17 22:54:00
6:16 PM,46.4,44.6,93,29.92,3.0,NE,17.3,-,0.00,Rain,Light Rain,50,2013-01-17 23:16:00
6:54 PM,46.0,43.0,89,29.88,2.5,NE,19.6,27.6,0.08,Rain,Heavy Rain,50,2013-01-17 23:54:00
7:11 PM,46.4,42.8,87,29.88,6.0,NE,19.6,24.2,0.08,Rain,Light Rain,50,2013-01-18 00:11:00
7:54 PM,46.0,43.0,89,29.90,4.0,NE,12.7,19.6,0.10,Rain,Rain,40,2013-01-18 00:54:00
8:54 PM,46.0,43.0,89,29.86,10.0,NNE,18.4,26.5,0.05,Rain,Light Rain,30,2013-01-18 01:54:00
9:54 PM,44.1,41.0,89,29.93,4.0,North,12.7,18.4,0.15,Rain,Heavy Rain,10,2013-01-18 02:54:00
10:21 PM,44.6,41.0,87,29.94,4.0,North,13.8,24.2,0.07,Rain,Heavy Rain,360,2013-01-18 03:21:00
10:34 PM,42.8,39.2,87,29.94,4.0,North,17.3,23.0,0.10,Rain,Heavy Rain,360,2013-01-18 03:34:00
10:54 PM,43.0,39.9,89,29.95,10.0,North,11.5,24.2,0.11,Rain,Light Rain,10,2013-01-18 03:54:00
10:57 PM,42.8,39.2,87,29.95,10.0,North,11.5,24.2,0.00,Rain,Light Rain,360,2013-01-18 03:57:00
11:54 PM,43.0,39.0,86,29.97,10.0,North,16.1,20.7,0.00,,Overcast,10,2013-01-18 04:54:00